Regional Weather Roundup
Issued by NWS

Home | Current Version | Previous Version | Graphics & Text | Print | Product List | Glossary On
Versions: 1 2 3 4 5 6 7 8 9 10 11 12 13 14 15 16 17 18 19 20 21 22 23 24 25 26 27 28 29 30 31 32 33 34 35 36 37 38 39 40 41 42 43 44 45 46 47 48 49 50
000
ASUS45 KSLC 291310
RWRUT

UTAH REGIONAL WEATHER ROUNDUP
NATIONAL WEATHER SERVICE SALT LAKE CITY UT
700 AM MDT MON MAY 29 2017

UTZ001>011-023>025-291400-

NORTHERN UTAH

CITY           SKY/WX    TMP DP  RH WIND       PRES   REMARKS
BRIGHAM CITY   CLEAR     51  39  63 CALM      30.17R
HILL AFB       CLEAR     52  36  54 E23       30.17R
LOGAN          CLEAR     47  40  76 N5        30.21R
OGDEN          CLEAR     54  38  54 W5        30.15R
SALT LAKE CITY CLEAR     56  41  57 SE5       30.15R
TOOELE VALLEY  CLEAR     48  39  71 S8        30.16R
WENDOVER       PTCLDY    54  34  46 CALM      30.15R
HEBER CITY     CLEAR     41  36  81 CALM      30.24S
WEST JORDAN    CLEAR     53  44  70 NW5       30.17R

$$

UTZ011>015-024>027-291400-

CENTRAL/NORTHEAST UTAH

CITY           SKY/WX    TMP DP  RH WIND       PRES   REMARKS
PROVO AIRPORT  CLEAR     51  37  58 E3        30.19R
MOAB/CANYONLAN SUNNY     56  17  21 CALM      30.12S
DELTA          CLEAR     45  36  70 CALM      30.17S
PRICE          CLEAR     55  31  39 CALM      30.20R
ROOSEVELT      SUNNY     45  36  70 W3        30.24S
VERNAL         SUNNY     52  33  48 NW5       30.23R

$$

UTZ013>016-019>022-027-291400-

SOUTHERN UTAH

CITY           SKY/WX    TMP DP  RH WIND       PRES   REMARKS
BRYCE CANYON   PTCLDY    38  25  59 W8        30.31R WCI  32
CEDAR CITY     CLEAR     44  26  49 CALM      30.19R
MILFORD        NOT AVBL
ST GEORGE      SUNNY     62  27  26 SE6       30.03R
HANKSVILLE     CLEAR     50  14  23 CALM      30.16S
BLANDING       SUNNY     51  28  41 N8        30.26R

$$

REGIONAL REPORTS     COLORADO/ARIZONA

CITY           SKY/WX    TMP DP  RH WIND       PRES   REMARKS
CRAIG, CO      SUNNY     38  35  89 CALM      30.29R
GRAND JUNCTION SUNNY     54  30  40 SE6       30.18R
RIFLE, CO      SUNNY     46  30  53 CALM      30.25R
MONTROSE, CO   SUNNY     47  25  42 SE6       30.25R
CORTEZ, CO     SUNNY     39  30  70 E3        30.22R
COLORADO CITY    N/A     52  30  43 CALM      30.15R
PAGE, AZ       PTCLDY    65  24  21 CALM      30.10R
GRAND CANYON   CLEAR     48  25  40 NE8       30.22S
KINGMAN, AZ    CLEAR     56  20  24 CALM      29.98R
FLAGSTAFF, AZ  CLEAR     40  24  53 CALM      30.23R

$$

REGIONAL REPORTS    NEVADA/IDAHO/WYOMING

CITY           SKY/WX    TMP DP  RH WIND       PRES   REMARKS
LAS VEGAS, NV  PTCLDY    73  18  12 SW3       29.90R
ELY, NY        CLEAR     35  24  64 S15       30.25R WCI  25
ELKO, NV       CLEAR     46  34  62 CALM      30.19R
POCATELLO, ID  CLEAR     45  40  82 CALM      30.22R
BURLEY, ID     CLEAR     46  43  89 N3        30.17R
FORT BRIDGER,    N/A     43  36  75 N3        30.35R
EVANSTON, WY   CLOUDY    43  34  70 E7        30.31R
ROCK SPRINGS,  SUNNY     45  37  73 E3        30.32R
KEMMERER, WY     N/A     43  34  70 N7        30.34S

$$



USA.gov is the U.S. government's official web portal to all federal, state and local government web resources and services.